This is the latest recevied weather packets stored in our database for station/object SP6PWT-13. If no packets are shown the sender has not sent any weather packets the latest 10 day(s).
| Time | Temp. | Humidity | Pressure | Rain* | Wind** | Luminosity | Snow |
|---|---|---|---|---|---|---|---|
| 1777767585 | 12.78° C | 58% | 1001.6 hPa | 0 mm | - | 0 W/m² | - |
| 1777767285 | 12.78° C | 58% | 1001.8 hPa | 0 mm | - | 0 W/m² | - |
| 1777766985 | 13.33° C | 58% | 1001.7 hPa | 0 mm | - | 0 W/m² | - |
| 1777766684 | 13.33° C | 57% | 1001.7 hPa | 0 mm | - | 0 W/m² | - |
| 1777766384 | 12.78° C | 58% | 1001.9 hPa | 0 mm | - | 0 W/m² | - |
| 1777766084 | 12.78° C | 58% | 1001.9 hPa | 0 mm | - | 0 W/m² | - |
| 1777765784 | 12.78° C | 59% | 1002 hPa | 0 mm | - | 0 W/m² | - |
| 1777765484 | 12.78° C | 60% | 1001.9 hPa | 0 mm | - | 0 W/m² | - |
| 1777765182 | 12.78° C | 59% | 1002 hPa | 0 mm | - | 0 W/m² | - |
| 1777764882 | 12.78° C | 58% | 1001.9 hPa | 0 mm | - | 0 W/m² | - |
| 1777764582 | 12.78° C | 58% | 1002.3 hPa | 0 mm | - | 0 W/m² | - |
| 1777764281 | 12.78° C | 58% | 1001.9 hPa | 0 mm | - | 0 W/m² | - |
| 1777763981 | 13.33° C | 57% | 1002.1 hPa | 0 mm | - | 0 W/m² | - |
| 1777763670 | 13.33° C | 57% | 1002.1 hPa | 0 mm | - | 0 W/m² | - |
| 1777763371 | 13.33° C | 56% | 1002.2 hPa | 0 mm | - | 0 W/m² | - |
| 1777757877 | 16.11° C | 45% | 1002.2 hPa | 0 mm | - | 0 W/m² | - |
| 1777757576 | 16.67° C | 45% | 1002.3 hPa | 0 mm | - | 0 W/m² | - |
| 1777757277 | 16.67° C | 45% | 1002.3 hPa | 0 mm | - | 0 W/m² | - |
| 1777756975 | 16.67° C | 44% | 1002.2 hPa | 0 mm | - | 0 W/m² | - |
| 1777756675 | 16.67° C | 44% | 1002.3 hPa | 0 mm | - | 0 W/m² | - |
| 1777756374 | 16.67° C | 44% | 1002.2 hPa | 0 mm | - | 0 W/m² | - |
| 1777756073 | 16.67° C | 44% | 1002.5 hPa | 0 mm | - | 0 W/m² | - |
| 1777755773 | 17.22° C | 43% | 1002.5 hPa | 0 mm | - | 0 W/m² | - |
| 1777755472 | 17.22° C | 43% | 1002.5 hPa | 0 mm | - | 0 W/m² | - |
| 1777755172 | 17.22° C | 43% | 1002.6 hPa | 0 mm | - | 0 W/m² | - |
* Rain latest hour (hover to see other rain measurements)
** Current wind speed in m/s (hover to see current wind gust speed)